Temperature
28 28 29 29 29 29 29 29 29 28 27 25 26 26 26 26 26 25 24 23 22 21 20 20 20 19 19 19 18 18 18 18 18 18 18 18 17 17 17 17 17 17 17 17
26 28 28 28 29 29 29 30 29 28 27 27 27 26 26 26 26 25 24 23 21 21 20 19 19 19 18 18 18 18 17 17 17 17 17 17 17 17 17 17 17 17 17 17
25 26 27 27 28 29 29 29 29 28 27 27 26 25 25 25 25 24 23 22 21 20 19 19 19 18 18 18 18 17 17 17 17 17 17 17 17 17 17 17 17 17 17 17
24 25 24 27 29 30 29 29 29 28 27 26 25 24 24 24 23 23 22 21 20 20 19 19 18 18 18 18 17 17 17 17 17 17 17 17 17 17 17 17 17 17 17 17
24 24 24 26 28 28 27 27 28 27 25 24 23 23 22 22 22 21 21 20 19 19 19 18 18 18 17 17 17 17 17 17 17 16 16 16 16 16 16 16 16 16 16 17
23 23 23 24 26 27 27 25 26 25 24 23 23 23 21 21 20 19 19 19 18 18 18 17 17 17 17 17 17 17 16 16 16 16 16 16 16 16 16 16 16 16 16 16
23 22 23 23 25 26 25 24 24 24 24 23 23 22 20 19 18 18 18 18 17 17 17 17 16 16 16 16 16 16 16 16 16 16 16 16 16 16 16 16 16 16 16 16
22 21 21 22 24 23 23 23 23 23 22 21 20 19 18 18 17 17 17 17 16 16 16 16 16 16 16 16 16 16 16 16 15 15 15 15 15 15 15 15 15 15 15 15
21 20 20 20 21 21 21 22 22 22 21 20 19 18 17 17 17 16 16 16 15 15 15 15 15 15 15 15 15 15 15 15 15 15 15 15 14 14 14 14 15 15 14 14
20 19 20 20 20 21 21 21 21 20 19 19 18 17 16 16 16 15 15 15 15 14 14 14 14 15 15 15 15 15 14 14 14 14 14 14 14 14 14 14 14 14 14 14
19 19 19 19 20 20 20 20 19 18 18 17 17 16 15 15 15 14 14 14 14 14 13 13 13 14 14 14 14 14 14 14 13 13 13 13 13 13 13 13 13 13 13 13
19 19 19 19 19 19 19 18 18 17 17 16 16 15 14 14 14 14 13 13 13 13 13 13 13 13 13 13 13 13 13 13 13 13 13 13 13 12 12 12 13 13 13 13
18 18 18 18 18 17 17 17 17 16 16 15 15 14 14 14 13 13 13 13 12 12 12 12 12 12 12 13 13 13 12 12 12 12 12 12 12 12 12 12 12 12 12 12
17 17 17 17 16 16 16 16 16 15 15 14 14 14 13 13 13 12 12 12 12 12 11 11 11 11 12 12 12 12 12 12 12 12 12 12 12 12 11 11 11 11 11 11
16 16 16 15 15 15 15 15 15 14 14 14 13 13 13 12 12 12 12 12 11 11 11 11 11 11 11 11 11 12 12 12 12 12 12 12 11 11 11 11 10 10 10 10
15 15 15 14 14 14 14 14 14 13 13 13 13 13 12 12 12 11 11 11 11 11 11 11 11 11 11 11 11 11 11 11 11 11 11 11 11 11 11 10 10 10 10 10
14 14 14 14 14 13 13 13 13 13 13 12 12 12 12 11 11 11 11 11 10 10 10 10 10 10 11 11 11 11 11 11 11 11 11 10 10 10 10 10 9 9 9 9
14 13 13 13 13 13 13 12 12 12 12 12 12 12 11 11 11 11 10 10 10 10 10 10 10 10 10 10 11 11 11 10 10 10 10 10 10 10 10 9 9 9 8 8
13 13 13 13 12 12 12 12 12 12 12 11 11 11 11 11 10 10 10 10 10 10 9 10 10 10 10 10 10 10 10 10 10 10 10 10 10 10 9 9 9 8 8 8
12 12 12 12 12 12 12 12 12 11 11 11 11 11 10 10 10 10 10 10 9 9 9 9 9 9 10 10 10 10 10 10 10 10 9 9 9 9 9 9 8 8 8 8
12 12 12 11 11 11 11 11 11 11 11 11 10 10 10 10 10 10 10 9 9 9 9 9 9 9 9 10 10 10 10 10 9 9 9 9 9 9 8 8 8 8 7 7
11 11 11 11 11 11 11 11 11 11 10 10 10 10 10 10 10 9 9 9 9 9 9 9 9 9 9 9 9 9 9 9 9 9 9 9 8 8 8 7 7 7 7 6
11 11 11 11 11 11 11 11 10 10 10 10 10 10 10 10 9 9 9 8 8 8 9 8 9 9 9 9 9 9 9 9 8 8 8 8 8 7 7 7 7 6 6 6
11 11 11 11 11 11 10 10 10 10 10 10 10 10 10 10 9 9 8 8 8 8 8 8 8 9 9 9 9 8 8 8 8 8 8 8 7 7 7 7 6 6 6 6
10 10 10 10 10 10 10 10 10 10 10 10 10 9 9 9 9 9 8 8 8 8 8 8 8 8 8 8 8 8 8 8 8 7 7 7 7 6 6 6 6 6 5 5
10 10 10 10 10 10 10 10 10 10 10 10 9 9 9 9 9 8 8 8 8 8 8 8 8 8 8 8 8 8 7 7 7 7 7 6 6 6 6 5 5 5 5 4
10 10 10 10 10 10 10 10 10 10 10 9 9 9 9 9 9 8 8 8 8 8 8 8 8 8 8 7 7 7 7 7 6 6 6 6 5 5 5 5 4 4 4 4
Wind_Speed
14 12 16 17 17 18 18 17 13 9 10 14 11 10 10 10 12 13 12 12 10 9 7 6 6 5 5 4 4 4 3 3 3 3 3 3 3 4 5 5 7 7 7 8
14 13 14 16 19 19 19 16 13 7 6 10 12 11 12 11 11 12 11 11 10 9 8 6 5 4 4 4 4 4 3 3 3 3 3 3 3 3 4 4 4 5 5 6
12 12 13 16 17 18 17 14 12 11 8 8 12 10 9 9 10 11 10 10 9 8 7 5 4 3 3 3 4 3 3 2 3 3 3 3 3 2 2 2 3 3 3 4
10 10 13 11 11 11 11 10 9 8 10 10 10 11 9 8 9 10 10 8 8 7 6 5 4 3 3 3 3 3 2 2 2 2 1 1 1 1 2 2 2 2 3 3
9 10 9 7 8 9 7 5 7 10 10 10 12 12 9 9 11 11 10 9 7 6 7 5 4 3 2 2 2 3 2 2 2 1 1 1 1 1 1 2 2 2 2 2
8 8 9 6 4 3 6 6 4 9 12 14 13 8 7 11 12 12 11 9 8 7 7 6 5 4 3 2 2 1 1 1 1 0 0 1 1 1 1 1 1 1 1 1
10 7 4 3 5 6 9 6 7 7 10 13 9 8 13 13 13 12 10 10 9 8 7 6 5 5 4 3 3 2 2 1 1 1 1 0 1 1 1 2 2 2 2 2
9 7 4 7 3 1 4 6 7 7 10 14 16 17 16 14 13 11 10 10 9 8 8 7 6 6 5 4 4 3 2 2 3 3 2 2 2 2 1 2 2 2 2 2
1 2 2 4 5 5 4 6 8 10 13 17 18 17 16 14 12 11 10 10 9 9 9 9 8 7 6 5 4 4 4 4 5 5 4 4 4 3 2 2 1 1 2 1
4 4 4 5 6 6 5 6 10 13 14 15 17 16 15 13 11 10 10 10 9 10 10 9 9 9 7 6 6 6 6 5 5 5 6 6 6 5 5 4 3 3 3 2
3 3 4 5 5 6 7 11 14 15 15 16 17 16 14 12 11 10 10 10 10 10 10 9 9 9 9 8 6 6 5 5 5 6 6 7 8 9 8 8 6 5 4 3
3 4 3 5 6 8 11 12 14 16 15 14 15 15 14 12 11 11 11 10 10 10 10 9 9 9 8 8 7 6 5 5 5 5 5 6 7 9 14 11 13 14 11 8
3 5 7 8 9 10 11 12 14 15 15 15 15 14 14 13 12 12 12 11 11 10 10 9 9 9 8 7 7 7 6 5 4 5 5 4 5 6 7 8 12 14 13 12
6 8 10 9 10 11 12 14 15 16 15 14 14 14 14 14 13 12 12 11 11 11 10 9 9 9 7 7 6 6 6 6 5 5 5 5 5 5 6 6 6 7 8 10
6 8 10 10 11 12 12 14 15 14 14 14 14 14 14 14 13 13 11 11 11 11 10 10 10 9 7 7 7 7 6 5 5 5 6 6 6 6 7 8 7 6 6 7
9 11 12 12 12 12 13 14 14 14 14 14 14 14 14 14 13 12 11 11 11 11 10 10 9 8 7 7 7 7 7 8 7 6 7 7 7 7 7 7 7 7 7 6
10 11 11 11 12 12 12 13 13 13 13 14 14 14 14 13 13 12 12 11 11 11 10 9 8 7 7 7 6 6 7 7 8 8 7 7 7 7 7 7 7 7 7 7
8 9 10 11 11 13 13 13 13 13 12 13 13 13 12 12 12 12 11 11 11 11 10 9 8 7 7 8 6 6 6 7 7 7 7 7 7 7 7 7 8 8 7 8
11 12 12 12 13 13 13 12 12 12 12 12 13 12 12 12 11 11 10 10 11 10 9 8 8 8 8 8 6 4 6 7 7 7 6 6 6 7 7 7 7 7 7 7
12 13 13 14 14 13 13 12 12 12 12 12 12 12 12 11 11 11 11 11 9 7 7 7 7 8 8 8 7 6 7 7 7 7 6 6 6 6 7 7 7 8 8 8
13 13 14 14 14 13 12 12 12 12 12 12 12 12 12 11 10 9 9 9 8 6 6 7 6 6 6 6 6 7 7 7 7 7 7 7 7 7 8 8 8 8 8 8
12 13 14 14 14 13 11 11 12 13 12 11 12 12 11 11 11 11 10 8 7 6 5 7 7 8 9 6 7 7 8 8 7 7 7 7 7 7 8 8 7 7 7 7
11 12 13 13 13 13 13 12 12 12 12 11 11 11 10 9 8 8 8 7 7 7 7 7 7 9 9 5 6 7 7 8 7 7 7 7 7 7 7 7 7 7 6 6
11 11 11 12 13 13 13 12 12 11 12 11 11 10 9 9 8 9 9 9 8 8 7 7 8 8 5 5 6 7 7 7 7 6 7 7 7 7 7 7 7 6 6 6
11 11 11 12 12 11 12 12 12 12 12 10 10 10 8 8 8 8 8 8 7 7 7 6 6 6 5 6 7 7 8 8 7 7 7 7 7 7 7 6 6 6 6 6
10 10 9 9 9 9 10 9 9 9 9 9 9 8 8 7 8 7 6 7 8 6 5 5 5 5 5 7 8 8 7 7 7 7 7 7 8 8 7 7 8 7 7 7
11 10 8 9 8 8 8 9 9 9 9 9 9 8 7 6 7 7 7 6 6 5 5 5 5 5 6 7 7 7 7 7 7 7 7 7 7 7 7 7 7 7 7 8
Wind_Direction
253 244 216 215 222 225 227 229 233 211 177 167 178 159 144 149 143 137 132 130 128 129 127 128 129 134 139 147 145 156 166 177 182 203 210 212 214 214 212 212 212 209 208 211
249 250 236 220 215 222 228 226 223 204 195 167 154 147 146 152 144 139 136 132 132 130 128 129 131 142 142 146 148 154 167 174 173 187 197 198 209 211 210 212 214 211 212 214
242 239 241 231 218 217 224 221 216 203 191 153 138 137 137 140 137 131 131 130 129 128 127 124 128 131 142 140 148 155 166 173 168 179 192 195 213 206 210 208 204 206 216 219
243 235 233 236 231 217 219 208 198 182 160 144 134 125 121 124 121 117 115 113 115 121 123 123 120 120 130 138 146 158 164 159 150 164 171 174 202 207 210 193 194 209 215 221
234 229 229 235 226 209 199 198 174 149 143 135 127 114 103 104 105 105 106 106 105 106 108 103 104 104 103 123 139 147 147 139 135 135 168 189 204 193 195 182 195 205 201 209
233 227 224 222 247 216 176 188 152 151 153 149 152 156 131 110 102 98 94 91 90 90 90 87 87 94 104 97 101 107 111 109 97 70 246 218 199 178 184 167 174 179 160 160
234 231 241 291 274 248 208 175 154 154 150 153 154 127 120 112 103 99 94 90 82 75 75 73 74 79 78 63 58 46 54 69 63 43 30 104 103 110 138 142 127 111 89 75
224 227 228 340 310 299 92 99 116 123 135 123 114 114 116 111 106 103 97 91 86 78 69 66 66 72 71 51 39 39 61 75 67 53 32 54 66 68 90 127 127 120 103 78
121 150 91 27 60 82 95 105 114 115 117 122 121 120 116 111 106 101 94 87 82 80 72 61 55 56 59 44 35 46 61 64 62 58 45 46 58 57 55 66 89 102 103 100
95 102 95 74 70 81 98 110 110 114 115 119 117 116 113 108 103 96 90 86 82 77 70 61 51 49 48 46 45 54 61 62 63 63 56 50 54 51 50 41 44 53 58 63
142 137 104 87 79 89 100 102 103 107 110 112 114 113 110 105 99 93 87 81 77 76 73 64 53 47 41 41 46 57 62 65 70 72 68 60 58 47 51 48 42 49 49 52
146 138 122 103 88 95 100 105 111 111 109 109 111 112 109 105 100 95 90 85 81 77 73 68 61 53 43 37 39 52 65 64 70 76 78 77 78 71 56 61 57 56 57 64
98 115 109 103 93 93 101 106 111 112 111 111 109 110 109 106 100 94 89 83 80 79 76 70 63 54 46 43 46 52 60 67 72 79 82 89 93 90 83 66 57 55 54 58
96 111 113 110 105 102 104 106 108 109 111 111 111 110 108 105 100 93 89 86 84 79 75 72 67 57 47 52 58 61 63 71 75 78 79 82 86 88 86 82 72 59 51 51
103 109 112 111 109 107 108 110 109 110 112 111 110 108 106 103 99 95 91 89 85 79 72 68 65 57 47 52 60 62 64 67 69 71 70 72 75 81 83 81 79 74 67 53
108 109 114 116 116 116 115 115 114 113 112 111 109 106 104 101 98 94 88 84 81 77 72 68 64 57 52 57 64 71 72 67 69 73 72 74 76 78 79 81 79 72 64 56
122 124 125 124 121 117 115 114 113 111 109 108 108 107 106 102 98 93 88 83 79 77 73 68 64 61 58 52 58 74 79 76 72 73 71 71 74 75 76 76 75 75 67 54
122 122 123 122 122 117 114 111 111 111 112 111 109 107 105 101 98 94 92 89 81 72 64 62 58 58 59 50 43 63 76 77 72 70 71 71 75 79 82 82 80 78 75 67
117 117 116 114 113 112 112 112 111 110 111 110 108 105 101 98 97 97 95 90 84 74 62 57 51 58 61 49 36 70 78 83 83 82 83 83 80 76 74 74 73 71 73 69
118 118 118 115 113 112 112 111 111 108 106 107 106 104 101 99 98 94 87 77 70 72 71 58 57 59 54 38 33 64 70 72 74 74 73 73 71 73 73 72 71 71 68 66
119 120 118 117 115 113 114 114 112 111 109 109 109 107 106 104 100 96 93 87 74 62 68 67 55 53 50 34 49 65 66 66 67 68 69 69 67 65 67 68 66 65 64 62
121 120 119 118 118 116 115 113 114 114 113 112 110 109 107 105 99 89 79 81 79 51 66 70 59 36 16 24 64 66 65 65 64 64 65 66 67 67 68 69 67 65 62 59
122 122 123 122 122 122 119 117 117 116 114 112 111 111 107 101 99 98 92 79 77 57 64 63 34 17 4 52 72 73 70 67 65 65 67 69 72 71 68 69 66 64 61 57
119 118 119 121 121 119 116 114 112 112 111 109 106 104 105 103 98 95 97 90 71 73 74 57 31 17 15 72 74 73 73 70 67 67 70 70 73 74 71 67 68 68 64 62
119 120 124 125 124 121 120 119 118 118 115 112 109 103 96 94 97 96 99 102 107 94 88 76 42 24 51 71 74 74 71 68 64 63 66 67 67 67 62 62 63 62 61 58
117 116 115 115 118 124 127 126 122 119 116 112 106 100 98 101 106 108 108 106 100 96 91 87 77 70 68 71 71 72 77 78 72 71 67 66 67 66 61 54 55 54 58 58
115 113 113 113 113 114 116 117 117 115 112 111 111 108 104 103 103 105 105 104 100 93 86 82 76 72 74 73 73 72 73 72 68 68 69 68 66 64 62 61 57 55 53 59
Height
1411 1407 1408 1412 1414 1414 1418 1419 1427 1428 1432 1437 1437 1436 1440 1444 1448 1452 1457 1462 1466 1470 1473 1475 1478 1479 1482 1483 1485 1487 1488 1490 1491 1492 1493 1494 1495 1496 1498 1500 1501 1503 1504 1506
1416 1409 1408 1410 1410 1413 1414 1414 1418 1424 1430 1427 1432 1437 1441 1445 1449 1453 1458 1463 1467 1470 1473 1475 1477 1479 1481 1483 1484 1486 1487 1488 1489 1490 1491 1492 1493 1494 1496 1497 1498 1500 1502 1503
1423 1414 1415 1419 1409 1410 1411 1410 1414 1424 1428 1427 1431 1437 1442 1446 1449 1454 1459 1463 1467 1470 1473 1475 1477 1479 1480 1482 1483 1484 1486 1487 1488 1489 1490 1490 1491 1492 1493 1494 1496 1497 1499 1500
1423 1424 1437 1415 1400 1401 1407 1410 1411 1417 1423 1429 1435 1439 1445 1449 1451 1456 1460 1465 1468 1471 1473 1475 1476 1478 1480 1481 1482 1483 1484 1485 1486 1487 1488 1489 1489 1490 1491 1492 1494 1495 1496 1498
1424 1428 1425 1413 1403 1403 1412 1417 1414 1420 1426 1432 1436 1442 1448 1451 1455 1459 1462 1466 1469 1471 1473 1475 1476 1477 1479 1480 1481 1482 1483 1484 1485 1485 1486 1487 1487 1488 1489 1490 1491 1492 1493 1495
1422 1431 1433 1420 1407 1406 1411 1424 1419 1422 1428 1433 1438 1446 1452 1454 1457 1461 1464 1467 1469 1471 1473 1474 1475 1476 1478 1479 1480 1481 1481 1482 1483 1484 1484 1485 1485 1486 1487 1488 1489 1490 1491 1492
1423 1429 1425 1415 1410 1409 1422 1427 1423 1425 1429 1434 1437 1443 1452 1455 1459 1462 1466 1468 1470 1471 1472 1474 1475 1476 1477 1478 1479 1479 1480 1481 1482 1482 1483 1484 1484 1485 1486 1487 1487 1488 1489 1490
1422 1432 1434 1418 1414 1418 1422 1422 1424 1427 1432 1436 1441 1446 1453 1457 1461 1465 1467 1470 1471 1472 1473 1474 1475 1475 1476 1477 1478 1479 1479 1480 1481 1481 1482 1483 1483 1483 1484 1485 1486 1487 1488 1489
1422 1430 1427 1424 1423 1424 1424 1426 1428 1430 1434 1439 1444 1450 1455 1460 1464 1467 1469 1471 1472 1473 1474 1475 1475 1476 1476 1477 1477 1478 1479 1479 1480 1481 1481 1482 1482 1483 1484 1484 1485 1486 1487 1487
1424 1428 1427 1426 1427 1428 1429 1430 1432 1435 1439 1442 1447 1452 1457 1462 1466 1469 1471 1473 1474 1475 1475 1476 1476 1476 1477 1477 1477 1478 1478 1479 1480 1481 1481 1482 1483 1483 1484 1484 1485 1485 1486 1487
1426 1429 1429 1430 1431 1431 1431 1432 1436 1439 1443 1446 1451 1456 1461 1465 1468 1471 1473 1474 1475 1476 1477 1478 1478 1478 1478 1478 1479 1479 1479 1480 1481 1482 1482 1482 1483 1484 1484 1485 1486 1486 1486 1486
1426 1430 1431 1433 1434 1435 1436 1438 1441 1444 1448 1452 1455 1459 1464 1467 1471 1473 1475 1476 1477 1478 1479 1480 1480 1480 1480 1480 1480 1480 1481 1481 1482 1483 1483 1484 1484 1484 1485 1486 1486 1487 1487 1487
1427 1430 1433 1436 1438 1439 1441 1443 1446 1449 1452 1456 1460 1464 1467 1470 1473 1476 1477 1479 1480 1481 1482 1482 1482 1482 1482 1482 1481 1482 1482 1483 1483 1484 1485 1486 1486 1486 1486 1487 1488 1488 1488 1488
1430 1432 1436 1439 1441 1443 1445 1448 1450 1454 1457 1460 1464 1468 1471 1473 1476 1478 1480 1482 1483 1484 1484 1485 1485 1485 1485 1484 1484 1484 1484 1485 1486 1486 1487 1488 1488 1488 1488 1489 1489 1489 1490 1490
1434 1435 1438 1441 1444 1446 1449 1451 1454 1458 1462 1465 1468 1471 1474 1477 1479 1481 1484 1485 1486 1487 1487 1488 1487 1488 1488 1487 1486 1486 1487 1487 1488 1489 1489 1490 1490 1491 1491 1491 1491 1492 1492 1492
1436 1438 1441 1444 1447 1450 1452 1455 1458 1462 1465 1469 1472 1475 1478 1480 1482 1485 1487 1488 1489 1489 1490 1490 1491 1491 1491 1490 1489 1489 1489 1490 1490 1491 1492 1492 1493 1494 1494 1494 1494 1495 1495 1495
1438 1441 1444 1447 1450 1453 1456 1459 1462 1465 1469 1472 1475 1478 1481 1484 1486 1488 1490 1491 1492 1492 1493 1493 1494 1494 1493 1493 1493 1493 1493 1493 1494 1494 1494 1495 1496 1496 1497 1497 1498 1498 1498 1498
1442 1445 1448 1450 1453 1456 1459 1463 1466 1469 1472 1476 1479 1482 1485 1487 1490 1491 1493 1494 1495 1496 1496 1496 1497 1496 1496 1496 1496 1496 1497 1497 1497 1497 1498 1498 1499 1500 1500 1501 1501 1501 1502 1502
1446 1448 1451 1454 1457 1460 1463 1467 1470 1474 1477 1480 1482 1485 1488 1491 1493 1495 1496 1497 1498 1499 1500 1500 1500 1500 1499 1499 1500 1500 1500 1500 1501 1501 1502 1502 1502 1503 1504 1504 1504 1504 1504 1504
1449 1452 1455 1459 1462 1464 1468 1471 1475 1478 1481 1484 1486 1489 1492 1495 1497 1498 1499 1500 1501 1502 1503 1503 1503 1503 1503 1503 1503 1503 1503 1504 1504 1505 1505 1505 1506 1506 1507 1507 1507 1507 1507 1507
1453 1457 1460 1463 1466 1470 1472 1476 1479 1482 1485 1488 1491 1493 1496 1498 1500 1501 1502 1503 1505 1505 1506 1506 1506 1506 1506 1506 1507 1507 1507 1507 1507 1508 1508 1508 1509 1509 1510 1510 1510 1510 1510 1510
1457 1460 1464 1467 1470 1474 1477 1480 1483 1486 1489 1492 1495 1497 1499 1501 1503 1504 1505 1507 1508 1508 1509 1509 1509 1509 1509 1510 1510 1510 1510 1510 1511 1511 1511 1511 1512 1512 1512 1513 1513 1513 1513 1513
1461 1464 1468 1471 1474 1477 1481 1484 1487 1490 1493 1495 1498 1500 1502 1504 1506 1507 1508 1510 1510 1510 1510 1511 1511 1511 1512 1513 1513 1513 1513 1513 1514 1514 1514 1515 1515 1515 1515 1515 1516 1515 1515 1515
1465 1468 1471 1475 1478 1481 1484 1488 1491 1494 1496 1499 1501 1503 1505 1507 1508 1510 1511 1511 1512 1513 1513 1514 1514 1515 1515 1515 1516 1516 1516 1516 1517 1517 1517 1518 1518 1518 1518 1518 1518 1518 1518 1518
1468 1471 1475 1478 1481 1484 1488 1491 1494 1497 1500 1502 1505 1507 1508 1510 1511 1512 1513 1514 1515 1516 1517 1517 1517 1517 1518 1518 1518 1519 1519 1519 1519 1519 1520 1520 1520 1520 1520 1520 1520 1520 1520 1519
1473 1475 1478 1481 1484 1488 1491 1494 1497 1500 1502 1505 1507 1509 1511 1512 1514 1515 1516 1517 1518 1519 1520 1520 1520 1520 1521 1521 1521 1521 1521 1522 1522 1522 1522 1522 1522 1522 1522 1522 1522 1521 1521 1521
1477 1479 1482 1485 1488 1491 1494 1497 1499 1502 1505 1507 1509 1512 1514 1515 1516 1518 1519 1520 1521 1522 1522 1523 1523 1523 1523 1523 1523 1524 1524 1524 1524 1524 1524 1524 1523 1523 1523 1523 1523 1522 1522 1522